• In Belarus
  • List of Countries
  • For 7 days
  • Water Temperature
  • Satellite Maps
  • Weather Map
  • Weather Widgets
  • user-avatar
    Login

    Hourly Weather Ivanovka

    Today, 22 February, Friday

    Time Temperature Precipitation Wind Pressure Humidity
    00:00 -2°C° 0 mm 6 mps 758 mmHg 63%
    01:00 -3°C° 0 mm 6 mps 759 mmHg 63%
    02:00 -3°C° 0 mm 6 mps 759 mmHg 63%
    03:00 -3°C° 0 mm 6 mps 759 mmHg 63%
    04:00 -4°C° 0 mm 6 mps 759 mmHg 61%
    05:00 -4°C° 0 mm 6 mps 759 mmHg 60%
    06:00 -4°C° 0 mm 5 mps 759 mmHg 59%
    07:00 -4°C° 0 mm 5 mps 759 mmHg 56%
    08:00 -4°C° 0 mm 5 mps 760 mmHg 54%
    09:00 -3°C° 0 mm 4 mps 760 mmHg 51%
    10:00 -3°C° 0 mm 4 mps 760 mmHg 49%
    11:00 -3°C° 0 mm 4 mps 760 mmHg 46%
    12:00 -1°C° 0 mm 3 mps 760 mmHg 44%
    13:00 -1°C° 0 mm 3 mps 760 mmHg 44%
    14:00 -1°C° 0 mm 3 mps 760 mmHg 43%
    15:00 -1°C° 0 mm 2 mps 760 mmHg 43%
    16:00 -1°C° 0 mm 2 mps 760 mmHg 47%
    17:00 -2°C° 0 mm 2 mps 760 mmHg 51%
    18:00 -2°C° 0 mm 2 mps 761 mmHg 55%
    19:00 -4°C° 0.1 mm 3 mps 761 mmHg 59%
    20:00 -4°C° 0.1 mm 4 mps 761 mmHg 63%
    21:00 -6°C° 0.1 mm 5 mps 762 mmHg 68%
    22:00 -6°C° 0.4 mm 5 mps 762 mmHg 72%
    23:00 -8°C° 0.4 mm 6 mps 762 mmHg 76%

    Tomorrow, 23 February, Saturday

    Time Temperature Precipitation Wind Pressure Humidity
    00:00 -8°C° 0.4 mm 7 mps 762 mmHg 80%
    01:00 -9°C° 0.6 mm 7 mps 762 mmHg 82%
    02:00 -9°C° 0.6 mm 6 mps 763 mmHg 85%
    03:00 -9°C° 0.6 mm 6 mps 763 mmHg 87%
    04:00 -9°C° 0.3 mm 7 mps 763 mmHg 86%
    05:00 -9°C° 0.3 mm 7 mps 764 mmHg 85%
    06:00 -9°C° 0.3 mm 7 mps 764 mmHg 85%
    07:00 -9°C° 0.3 mm 7 mps 764 mmHg 84%
    08:00 -10°C° 0.3 mm 8 mps 765 mmHg 84%
    09:00 -10°C° 0.3 mm 8 mps 765 mmHg 84%
    10:00 -10°C° 0.1 mm 8 mps 766 mmHg 83%
    11:00 -8°C° 0.1 mm 7 mps 766 mmHg 81%
    12:00 -7°C° 0.1 mm 7 mps 766 mmHg 79%
    13:00 -7°C° 0.2 mm 7 mps 766 mmHg 80%
    14:00 -7°C° 0.2 mm 7 mps 766 mmHg 81%
    15:00 -6°C° 0.2 mm 7 mps 767 mmHg 82%
    16:00 -7°C° 0.2 mm 7 mps 767 mmHg 84%
    17:00 -7°C° 0.2 mm 7 mps 767 mmHg 86%
    18:00 -7°C° 0.2 mm 7 mps 768 mmHg 88%
    19:00 -7°C° 0.2 mm 7 mps 768 mmHg 87%
    20:00 -7°C° 0.2 mm 7 mps 768 mmHg 87%
    21:00 -8°C° 0.2 mm 7 mps 769 mmHg 87%
    22:00 -8°C° 0 mm 7 mps 769 mmHg 87%
    23:00 -8°C° 0 mm 7 mps 769 mmHg 87%

    Day after tomorrow, 24 February, Sunday

    Time Temperature Precipitation Wind Pressure Humidity
    00:00 -8°C° 0 mm 6 mps 769 mmHg 86%
    01:00 -8°C° 0 mm 6 mps 769 mmHg 86%
    02:00 -8°C° 0 mm 6 mps 770 mmHg 87%
    03:00 -9°C° 0 mm 6 mps 770 mmHg 87%
    04:00 -9°C° 0 mm 6 mps 770 mmHg 86%
    05:00 -9°C° 0 mm 6 mps 770 mmHg 86%
    06:00 -9°C° 0 mm 6 mps 770 mmHg 85%
    07:00 -9°C° 0 mm 6 mps 770 mmHg 84%
    08:00 -9°C° 0 mm 6 mps 771 mmHg 84%
    09:00 -9°C° 0 mm 6 mps 771 mmHg 83%
    10:00 -8°C° 0 mm 5 mps 771 mmHg 81%
    11:00 -7°C° 0 mm 5 mps 771 mmHg 79%
    12:00 -6°C° 0 mm 5 mps 771 mmHg 77%
    13:00 -5°C° 0 mm 4 mps 771 mmHg 76%
    14:00 -4°C° 0 mm 4 mps 771 mmHg 74%
    15:00 -4°C° 0 mm 4 mps 771 mmHg 72%
    16:00 -4°C° 0 mm 3 mps 771 mmHg 75%
    17:00 -5°C° 0 mm 3 mps 771 mmHg 77%
    18:00 -5°C° 0 mm 3 mps 771 mmHg 80%
    19:00 -4°C° 0 mm 2 mps 771 mmHg 80%
    20:00 -5°C° 0 mm 2 mps 772 mmHg 81%
    21:00 -3°C° 0 mm 1 mps 772 mmHg 81%
    22:00 -3°C° 0 mm 1 mps 772 mmHg 78%
    23:00 -3°C° 0 mm 1 mps 772 mmHg 75%

    25 February, Monday

    Time Temperature Precipitation Wind Pressure Humidity
    00:00 -5°C° 0 mm 2 mps 772 mmHg 72%
    01:00 -5°C° 0 mm 2 mps 772 mmHg 70%
    02:00 -5°C° 0 mm 2 mps 771 mmHg 69%
    03:00 -6°C° 0 mm 3 mps 771 mmHg 67%
    04:00 -6°C° 0 mm 3 mps 771 mmHg 69%
    05:00 -6°C° 0 mm 3 mps 771 mmHg 71%
    06:00 -5°C° 0 mm 3 mps 770 mmHg 73%
    07:00 -5°C° 0 mm 3 mps 770 mmHg 74%
    08:00 -4°C° 0 mm 4 mps 770 mmHg 75%
    09:00 -4°C° 0 mm 4 mps 770 mmHg 76%
    10:00 -3°C° 0 mm 4 mps 770 mmHg 75%
    11:00 -2°C° 0 mm 4 mps 769 mmHg 75%
    12:00 -1°C° 0 mm 4 mps 769 mmHg 74%
    13:00 -1°C° 0 mm 4 mps 768 mmHg 73%
    14:00 0°C° 0 mm 4 mps 768 mmHg 71%
    15:00 +1°C° 0 mm 4 mps 767 mmHg 70%
    16:00 0°C° 0 mm 4 mps 766 mmHg 73%
    17:00 -1°C° 0 mm 4 mps 766 mmHg 76%
    18:00 -1°C° 0 mm 4 mps 765 mmHg 79%
    19:00 -1°C° 0 mm 5 mps 765 mmHg 79%
    20:00 -1°C° 0 mm 5 mps 764 mmHg 78%
    21:00 -2°C° 0 mm 6 mps 764 mmHg 78%
    22:00 -2°C° 0.1 mm 6 mps 763 mmHg 79%
    23:00 -2°C° 0.1 mm 6 mps 763 mmHg 81%

    26 February, Tuesday

    Time Temperature Precipitation Wind Pressure Humidity
    00:00 -2°C° 0.1 mm 6 mps 762 mmHg 83%
    01:00 -2°C° 0.1 mm 6 mps 761 mmHg 84%
    02:00 -2°C° 0.1 mm 6 mps 761 mmHg 86%
    03:00 -2°C° 0.1 mm 6 mps 760 mmHg 87%
    04:00 -2°C° 0 mm 6 mps 759 mmHg 87%
    05:00 -1°C° 0 mm 5 mps 759 mmHg 87%
    06:00 -1°C° 0 mm 5 mps 758 mmHg 86%
    07:00 -1°C° 0 mm 5 mps 758 mmHg 85%
    08:00 -1°C° 0 mm 5 mps 757 mmHg 84%
    09:00 -2°C° 0 mm 6 mps 757 mmHg 82%
    10:00 -2°C° 0.1 mm 6 mps 756 mmHg 81%
    11:00 -1°C° 0.1 mm 6 mps 756 mmHg 79%
    12:00 -1°C° 0.1 mm 6 mps 755 mmHg 77%
    13:00 -1°C° 0 mm 6 mps 755 mmHg 75%
    14:00 +1°C° 0 mm 6 mps 754 mmHg 74%
    15:00 +1°C° 0 mm 6 mps 754 mmHg 72%
    16:00 0°C° 0 mm 5 mps 754 mmHg 75%
    17:00 0°C° 0 mm 4 mps 753 mmHg 78%
    18:00 -1°C° 0 mm 4 mps 753 mmHg 81%
    19:00 -1°C° 0 mm 4 mps 753 mmHg 83%
    20:00 -2°C° 0 mm 4 mps 753 mmHg 85%
    21:00 -2°C° 0 mm 4 mps 752 mmHg 86%
    22:00 -2°C° 0 mm 4 mps 752 mmHg 87%
    23:00 -1°C° 0 mm 3 mps 751 mmHg 88%

    27 February, Wednesday

    Time Temperature Precipitation Wind Pressure Humidity
    00:00 -1°C° 0 mm 3 mps 751 mmHg 89%
    01:00 -1°C° 0 mm 3 mps 750 mmHg 89%
    02:00 -1°C° 0 mm 3 mps 750 mmHg 90%
    03:00 -1°C° 0 mm 3 mps 749 mmHg 91%
    04:00 -1°C° 0 mm 3 mps 749 mmHg 90%
    05:00 -1°C° 0 mm 2 mps 749 mmHg 90%
    06:00 -2°C° 0 mm 2 mps 748 mmHg 90%
    07:00 -1°C° 0 mm 3 mps 749 mmHg 87%
    08:00 -1°C° 0 mm 3 mps 749 mmHg 84%
    09:00 0°C° 0 mm 3 mps 749 mmHg 81%
    10:00 0°C° 0.1 mm 3 mps 749 mmHg 77%
    11:00 +1°C° 0.1 mm 3 mps 750 mmHg 73%
    12:00 +1°C° 0.1 mm 3 mps 750 mmHg 69%
    13:00 0°C° 0.1 mm 4 mps 750 mmHg 68%
    14:00 0°C° 0.1 mm 4 mps 751 mmHg 67%
    15:00 0°C° 0.1 mm 5 mps 751 mmHg 66%
    16:00 0°C° 0 mm 5 mps 751 mmHg 68%
    17:00 -1°C° 0 mm 5 mps 752 mmHg 71%
    18:00 -2°C° 0 mm 5 mps 752 mmHg 73%
    19:00 -2°C° 0 mm 5 mps 753 mmHg 75%
    20:00 -2°C° 0 mm 5 mps 754 mmHg 77%
    21:00 -2°C° 0 mm 4 mps 754 mmHg 79%
    22:00 -2°C° 0 mm 4 mps 755 mmHg 80%
    23:00 -2°C° 0 mm 5 mps 755 mmHg 81%
    Show more